STARLINK-31860, 59670

Orbit data source: Space-Track

STARLINK-31860, 59670 is a payload satellite owned by SpaceX/Seattle (US) in LEO that was launched on Mon, 06 May 2024 UTC via an FALCON 9 launch vehicle from the Air Force Eastern Test Range (AFETR). Payload-class satellites include a variety of spacecraft equipped with specific instruments for various scientific and technological missions. These include communications satellites like Starlink; space stations such as the ISS; scientific satellites like the Hubble; Earth observation satellites from companies like Planet Labs, Umbra, and HawkEye 360; GPS; miniature CubeSats for education and research; and military/defense satellites.

Loading next visibility...
Identifier
59670, 2024-084S
Orbit
LEO
Country
Flag of USUS
Related business
Manufacturer
SpaceX/Seattle
Mission
Operational Commercial Communications
Bus & Motor
STARLINK V2M, Unknown motor
Mass
730 kg wet, ~700 kg dry
Launch date (UTC)
2024-05-06 (2 years ago)
Launch vehicle
FALCON 9
Launch site
Air Force Eastern Test Range (AFETR)
Object type
Payload
Rocket body
Debris
Shape & HBR
Box + 2 Pan, 17.7 m
Radar Cross Section
33.884 m², Large (>1 m²)

Expand to show TLE details & history
Last TLE update: 15 hours ago

TLE from 15 hours ago
0 STARLINK-31860
1 59670U 24084S   26073.13836806  .00001414  00000-0  60898-4 0  9993
2 59670  43.0059  13.1995 0001071 289.9505  70.1231 15.27581718105077
Epoch: 2026-03-14T03:19Z
TLE epoch observation values (Epoch: 2026-03-14T03:19:15.000Z)
Latitude
-0.00003°
Longitude
151.62311°
Altitude
482.57 km
Speed
7.626 km/s
True Right ascension
00h 52m 47s
True Declination
0° 00' 00"
Sunlit
Object was in daylight at epoch
Visualization orbit readout
Latitude
Unknown
Longitude
Unknown
Altitude
Unknown
Speed
Unknown
Apparent Right ascension
Unknown
Apparent Declination
Unknown
Sunlit
N/A
Visualization observer readout
Local Sidereal Time
22:40:21
Azimuth
Unknown
Elevation
Unknown
Doppler factor
Unknown
Orbital elements
Apogee altitude
485.723 km
Perigee altitude
484.253 km
Semi-major axis
6,863.125 km
Eccentricity
0.00011
Inclination
43.0059°
RAAN
13.1995°
Arg. of periapsis
289.9505°
True anomaly
70.13464°
Mean anomaly
70.1231°
Eccentric anomaly
70.12887°
Mean motion
3.81734 °/min
Orbital period
94.31 mins
BSTAR
0.000060898
Loading maneuver chart data...
Computing Atmospheric mass density...
Loading historical data...
Loading historical data...
Loading historical data...
Loading historical data...
Loading historical data...
Loading historical data...
Loading historical data...

Documentation

Showing up to 5 results
|